Home > Weather > Medicine Hat > Past weeks

Flag for Canada Past Weather in Medicine Hat, Alberta, Canada — Yesterday and Last 2 Weeks

Now
79 °F

Partly sunny.


Feels Like: 79 °F
Forecast: 57 / 82 °F
Wind: 6 mph from East

Location: Medicine Hat

Current Time: Jul 27, 2016 at 9:06:03 PM

Latest Report: Jul 27, 2016 at 8:00 PM


Visibility: 30 mi

Pressure: 30.10 "Hg (27.91 "Hg at 661m altitude)

Humidity: 45%

Dew Point: 55 °F

Location of Medicine HatLocation

Past Weather in Medicine Hat — Graph

°F

Medicine Hat Temperature Yesterday

Maximum temperature yesterday: 88 °F (at 2:00 PM)
Minimum temperature yesterday: 61 °F (at 9:00 PM)
Average temperature yesterday: 71 °F

High & Low Weather Summary for the Past Weeks

 TemperatureHumidityPressure
High88 °F (Jul 22, 3:00 PM)100% (Jul 13, 4:00 AM)30.17 "Hg (Jul 13, 4:00 AM)
Low50 °F (Jul 17, 6:00 AM)22% (Jul 21, 4:00 PM)29.74 "Hg (Jul 22, 5:00 PM)
Average67 °F67%29.99 "Hg
* Reported Jul 12 8:00 PM — Jul 27 8:00 PM, Medicine Hat, Weather by CustomWeather, © 2016

Note: Actual official high and low records may vary slightly from our data, if they occured in-between our weather recording intervals... More about our weather records

Advertising

Medicine Hat Weather History for the Previous 24 Hours

Scroll right to see more
 ConditionsComfort  
Time TempWeatherWind HumidityBarometerVisibility
8:00 PM
Wed, Jul 27
79 °FPartly sunny.6 mph45%30.10 "Hg30 mi
7:00 PM84 °FBroken clouds.9 mph35%30.09 "Hg30 mi
6:00 PM88 °FBroken clouds.5 mph31%30.10 "Hg30 mi
5:00 PM84 °FPartly sunny.5 mph35%30.11 "Hg30 mi
4:00 PM82 °FPartly sunny.3 mph35%30.12 "Hg30 mi
3:00 PM82 °FPartly sunny.3 mph37%30.12 "Hg30 mi
2:00 PM81 °FMore clouds than sun.2 mph45%30.14 "Hg30 mi
1:00 PM77 °FPartly sunny.3 mph54%30.15 "Hg30 mi
12:00 PM77 °FPartly sunny.3 mph57%30.15 "Hg30 mi
11:00 AM77 °FPartly sunny.2 mph57%30.15 "Hg30 mi
10:00 AM73 °FPartly sunny.2 mph69%30.15 "Hg30 mi
9:00 AM66 °FPartly sunny.No wind88%30.15 "Hg15 mi
8:00 AM63 °FMore clouds than sun.3 mph100%30.15 "Hg15 mi
7:00 AM61 °FMostly cloudy.2 mph100%30.14 "Hg2 mi
6:45 AM61 °FFog.5 mph100%30.12 "Hg1 mi
6:00 AM61 °FFog.3 mph100%30.11 "Hg3 mi
5:55 AM59 °FPassing clouds.5 mph100%30.10 "Hg8 mi
5:00 AM59 °FClear.No wind100%30.10 "Hg9 mi
4:00 AM59 °FPassing clouds.No wind100%30.09 "Hg9 mi
3:00 AM61 °FPassing clouds.3 mph100%30.08 "Hg9 mi
2:00 AM61 °FPassing clouds.3 mph100%30.08 "Hg9 mi
1:00 AM61 °FClear.2 mph100%30.09 "Hg9 mi
12:00 AM61 °FPassing clouds.3 mph100%30.08 "Hg9 mi
11:00 PM
Tue, Jul 26
61 °FPassing clouds.8 mph100%30.05 "Hg9 mi
10:04 PM61 °FOvercast.6 mph100%30.05 "Hg9 mi
9:00 PM61 °FCloudy.3 mph100%30.03 "Hg15 mi
Weather by CustomWeather, © 2016

See weather overviewHow to use our weather pages